Location: *
(51.1248°S, 108.4023°W)
Time: 03:10:56
(UTC+00:00)

Cosmos 2278 Rocket - Pass Details

Date: 23 October 2021
Orbit: 841 x 845 km, 71.0° (Epoch: 01 December)

Event Time Altitude Azimuth Distance (km) Brightness Sun altitude
Exits shadow 10:10:37 - 253° (WSW) 3,426 5.1 -14.7°
Reaches altitude 10° 10:14:44 10° 225° (SW) 2,496 4.6 -14.2°
Maximum altitude 10:17:10 13° 199° (SSW) 2,312 4.7 -13.9°
Drops below altitude 10° 10:19:36 10° 174° (S) 2,500 5.3 -13.6°
Sets 10:23:44 0° 145° (SE) 3,439 6.9 -13.1°
